[[{"header":{"parameterUnit":"m.s-1","parameterCategory":1,"la1":30.2991,"la2":30.254,"lo1":-89.0895,"lo2":-89.0444,"dy":0.0017,"dx":0.0017,"nx":28,"ny":28,"refTime":"2024-05-31T03:00:00:Z","depth":0,"parameterNumber":2,"parameterNumberName":"U-component_of_WINDS"},"data":[0,0,0,0,0,0,0,0,0,0,0,0,0,0,0,0,0,0,0,0,0,0,0,0,0,0,0,0,0,0,0,0,0,0,0,0,0,0,0,0,0,0,0,0,0,0,0,0,0,0,0,0,0,0,0,0,0,0,-1.9973,-1.9973,0,-2.0056,-2.0057,-2.0058,-2.0061,-2.006,-2.0058,-2.0058,-2.0145,-2.0148,-2.0151,0,0,0,0,0,0,0,0,0,0,0,0,0,-1.9817,-1.9819,-1.9972,-1.9974,-1.9975,-2.0056,-2.0057,-2.0058,-2.0061,-2.0059,-2.0058,-2.0057,-2.0143,-2.0147,-2.0151,0,0,0,0,0,0,0,0,0,0,0,0,0,-1.9891,-1.982,-1.9972,-1.9986,-1.9988,-2.0056,-2.0057,-2.0059,-2.0061,-2.0059,-2.0058,-2.0056,-2.0142,-2.0147,-2.0152,-2.0213,0,0,-2.0167,-2.0169,0,0,0,0,0,0,0,0,-1.9886,-1.9896,-1.9983,-1.9985,-1.9987,-2.0046,-2.0034,-2.011,-2.0061,-2.0033,-2.0057,-2.0056,-2.0113,-2.012,-2.0139,-2.0217,-2.022,-2.0167,-2.017,-2.0172,-2.0174,0,0,0,0,0,0,0,-1.9881,-1.9893,-2.0006,-1.9984,-1.9987,-1.9988,-1.9997,-2.0048,-2.0081,-2.0036,-2.0036,-2.0046,-2.0114,-2.0135,-2.0142,-2.0222,-2.0167,-2.0171,-2.0174,-2.0176,-2.0353,-2.0354,0,0,0,0,0,0,-1.9873,-1.9889,-2.0003,-2.0008,-1.9932,-1.9992,-2.0002,-2.0029,-2.008,-2.0087,-2.0047,-2.0045,-2.0127,-2.0136,-2.0145,-2.0219,-2.0172,-2.0177,-2.018,-2.0351,-2.0353,-2.0355,0,0,0,0,0,0,-1.987,-1.9884,-2.0,-1.9948,-1.9963,-1.9996,-2.0027,-2.0031,-2.0052,-2.0089,-2.0095,-2.0062,-2.0126,-2.0138,-2.0195,-2.0222,-2.0179,-2.0184,-2.0349,-2.0352,-2.0354,-2.0367,0,0,0,0,0,0,-1.9866,-1.9882,-1.9905,-1.9949,-1.9966,-2.0049,-2.0028,-2.0034,-2.006,-2.0059,-2.0104,-2.011,-2.0126,-2.0188,-2.02,-2.0228,-2.0187,-2.0347,-2.035,-2.0353,-2.0365,-2.037,-2.0375,0,0,0,0,0,-1.986,-1.9906,-1.9907,-1.992,-1.9996,-2.005,-2.006,-2.0076,-2.0062,-2.0086,-2.011,-2.0109,-2.0217,-2.0194,-2.0208,-2.0237,-2.0345,-2.0349,-2.0353,-2.0363,-2.0369,-2.0375,0,0,0,0,0,0,-1.9866,-1.9912,-1.9913,-1.9975,-2.0009,-2.0051,-2.0081,-2.0083,-2.0122,-2.0119,-2.0138,-2.0149,-2.0206,-2.0228,-2.0201,-2.0298,-2.0279,-2.0286,-2.0282,-2.0289,-2.0294,-2.0287,-2.0191,0,0,0,0,0,-1.9874,-1.9914,-1.9953,-2.0004,-2.0021,-2.0048,-2.0072,-2.0082,-2.0118,-2.0132,-2.016,-2.0195,-2.0237,-2.0264,-2.0305,-2.0368,-2.0378,-2.0395,-2.04,-2.0404,-2.041,-2.0444,-2.0452,-2.0368,-2.0368,-2.0368,0,0,-1.9892,-1.9923,-1.9947,-2.0006,-2.0033,-2.0074,-2.006,-2.0104,-2.0135,-2.0139,-2.0195,-2.0217,-2.0257,-2.0318,-2.0346,-2.0338,-2.0435,-2.0409,-2.0412,-2.0415,-2.0449,-2.0457,-2.0464,-2.0371,-2.037,-2.037,0,0,-1.9946,-1.9973,-2.0018,-2.0045,-2.0086,-2.0104,-2.0115,-2.0157,-2.0171,-2.0227,-2.0231,-2.0268,-2.034,-2.0368,-2.0392,-2.0456,-2.0457,-2.0469,-2.0495,-2.0529,-2.0535,-2.0541,-2.0563,-2.0571,-2.0475,-2.0475,-2.0475,0,-1.9963,-2.0025,-2.0041,-2.0085,-2.0111,-2.0116,-2.0161,-2.0188,-2.024,-2.0258,-2.0248,-2.0337,-2.0365,-2.0432,-2.0448,-2.0467,-2.048,-2.0464,-2.0533,-2.0539,-2.0545,-2.0566,-2.0575,-2.0476,-2.0476,-2.0476,-2.0476,0,-2.0044,-2.0086,-2.0118,-2.0167,-2.0197,-2.0242,-2.0265,-2.0293,-2.03,-2.0319,-2.0376,-2.041,-2.0457,-2.0474,-2.0481,-2.0542,-2.0535,-2.0529,-2.051,-2.0554,-2.0574,-2.0582,-2.0478,-2.0477,-2.0477,-2.0477,0,0,-2.0103,-2.0161,-2.0172,-2.0194,-2.024,-2.0273,-2.0318,-2.0364,-2.0387,-2.0423,-2.0461,-2.0522,-2.0516,-2.0543,-2.0554,-2.0584,-2.0631,-2.0574,-2.0575,-2.0583,-2.0699,-2.0703,-2.0712,-2.0633,-2.0634,-2.0636,-2.0696,0,-2.0161,-2.024,-2.0256,-2.0325,-2.0364,-2.037,-2.0409,-2.0441,-2.046,-2.0497,-2.0518,-2.056,-2.055,-2.0566,-2.0596,-2.0619,-2.0655,-2.0615,-2.0668,-2.067,-2.0657,-2.0723,-2.0728,-2.0783,-2.0704,-2.0705,-2.0706,0,-2.0239,-2.0276,-2.0349,-2.0388,-2.0405,-2.044,-2.0483,-2.0518,-2.0555,-2.0566,-2.0596,-2.0604,-2.0651,-2.0631,-2.0696,-2.0669,-2.0691,-2.0706,-2.0709,-2.0714,-2.069,-2.0729,-2.0801,-2.0809,-2.0719,-2.0718,-2.0717,0,-2.0274,-2.0342,-2.0394,-2.0413,-2.0461,-2.0485,-2.0506,-2.0542,-2.0568,-2.0605,-2.0622,-2.0665,-2.0689,-2.0722,-2.0741,-2.0724,-2.0805,-2.0786,-2.0816,-2.0815,-2.0832,-2.083,-2.0907,-2.0848,-2.0848,-2.0847,-2.0847,0,-2.0337,-2.0381,-2.0411,-2.0443,-2.0492,-2.051,-2.0559,-2.058,-2.0611,-2.0647,-2.0655,-2.0689,-2.0713,-2.075,-2.0766,-2.0817,-2.0828,-2.0838,-2.0842,-2.0837,-2.0836,-2.0852,-2.0848,-2.085,-2.0849,-2.0849,-2.0848,0,-2.0384,-2.0406,-2.0463,-2.0503,-2.0514,-2.0549,-2.0583,-2.0615,-2.0634,-2.0679,-2.0691,-2.0721,-2.0766,-2.0788,-2.0844,-2.0854,-2.0912,-2.0914,-2.0899,-2.09,-2.0928,-2.0925,-2.1018,-2.1031,-2.0963,-2.0964,-2.0964,0,-2.0423,-2.0456,-2.05,-2.0524,-2.0546,-2.0585,-2.0611,-2.0631,-2.0658,-2.0702,-2.0728,-2.0773,-2.0809,-2.088,-2.0907,-2.095,-2.0952,-2.0981,-2.0958,-2.0952,-2.0951,-2.0949,-2.0952,-2.0985,-2.0986,-2.0986,-2.0987,0,-2.0488,-2.0497,-2.0534,-2.0575,-2.0606,-2.064,-2.0673,-2.0692,-2.0717,-2.0747,-2.0792,-2.082,-2.0877,-2.0921,-2.0965,-2.0988,-2.0991,-2.0994,-2.1003,-2.0998,-2.0988,-2.0993,-2.0909,-2.0991,-2.0991,-2.0991,-2.099,-2.099,-2.0532,-2.0562,-2.0596,-2.0638,-2.0664,-2.0695,-2.0726,-2.0748,-2.0786,-2.0832,-2.0842,-2.0889,-2.0925,-2.0985,-2.1009,-2.1046,-2.104,-2.1053,-2.1056,-2.1059,-2.106,-2.0982,-2.1055,-2.1055,-2.1054,-2.1054,-2.1054,0,-2.0597,-2.0619,-2.0657,-2.0702,-2.0734,-2.0734,-2.0771,-2.0798,-2.084,-2.0872,-2.0908,-2.0959,-2.1002,-2.1032,-2.1076,-2.11,-2.1103,-2.1111,-2.1109,-2.1114,-2.1064,-2.1051,-2.1108,-2.1108,-2.1108,-2.1108,-2.1108,-2.1108,-2.0634,-2.0685,-2.0697,-2.0761,-2.0784,-2.0829,-2.085,-2.0878,-2.0904,-2.0961,-2.0996,-2.1015,-2.1047,-2.1093,-2.1132,-2.114,-2.1155,-2.1163,-2.1171,-2.1123,-2.1118,-2.1112,-2.11,-2.1167,-2.1167,-2.1218,-2.1218,-2.1219]},{"header":{"parameterUnit":"m.s-1","parameterCategory":1,"la1":30.2991,"la2":30.254,"lo1":-89.0895,"lo2":-89.0444,"dy":0.0017,"dx":0.0017,"nx":28,"ny":28,"refTime":"2024-05-31T03:00:00:Z","depth":0,"parameterNumber":3,"parameterNumberName":"V-component_of_WINDS"},"data":[0,0,0,0,0,0,0,0,0,0,0,0,0,0,0,0,0,0,0,0,0,0,0,0,0,0,0,0,0,0,0,0,0,0,0,0,0,0,0,0,0,0,0,0,0,0,0,0,0,0,0,0,0,0,0,0,0,0,3.275,3.275,0,3.278,3.278,3.278,3.2717,3.2715,3.2713,3.2711,3.2738,3.274,3.2743,0,0,0,0,0,0,0,0,0,0,0,0,0,3.2634,3.2637,3.275,3.275,3.2751,3.278,3.278,3.278,3.2718,3.2715,3.2713,3.271,3.2737,3.274,3.2743,0,0,0,0,0,0,0,0,0,0,0,0,0,3.2676,3.2638,3.275,3.2723,3.2721,3.278,3.278,3.2781,3.2718,3.2715,3.2712,3.2709,3.2736,3.274,3.2744,3.2829,0,0,3.2756,3.2757,0,0,0,0,0,0,0,0,3.2674,3.2681,3.2726,3.2725,3.2723,3.2742,3.2749,3.2797,3.2719,3.2719,3.2711,3.2708,3.2741,3.2745,3.2757,3.283,3.2831,3.2756,3.2758,3.276,3.2761,0,0,0,0,0,0,0,3.2671,3.2679,3.2761,3.2727,3.2725,3.2708,3.2711,3.2758,3.2747,3.2719,3.2714,3.2719,3.274,3.2753,3.2757,3.2831,3.2756,3.2759,3.2762,3.2763,3.2974,3.2977,0,0,0,0,0,0,3.2672,3.2677,3.276,3.2762,3.269,3.2713,3.2715,3.2739,3.2746,3.2744,3.2722,3.2716,3.2748,3.2752,3.2758,3.2856,3.276,3.2764,3.2766,3.2971,3.2975,3.2978,0,0,0,0,0,0,3.267,3.268,3.2759,3.2718,3.2727,3.2718,3.2744,3.2741,3.2754,3.2748,3.2746,3.2738,3.2746,3.2752,3.2811,3.2856,3.2765,3.2769,3.2967,3.2972,3.2976,3.3054,0,0,0,0,0,0,3.2667,3.268,3.2713,3.272,3.273,3.2814,3.2747,3.2744,3.2762,3.2754,3.2763,3.2761,3.2744,3.2806,3.2815,3.286,3.2772,3.2963,3.2969,3.2975,3.3047,3.3061,3.3073,0,0,0,0,0,3.2663,3.2733,3.2715,3.2725,3.2771,3.2817,3.2822,3.2802,3.2766,3.2798,3.2794,3.2761,3.285,3.2812,3.2822,3.2869,3.296,3.2967,3.2974,3.3042,3.3058,3.3072,0,0,0,0,0,0,3.273,3.2733,3.2713,3.2788,3.2803,3.2806,3.2846,3.2821,3.2845,3.2837,3.281,3.2813,3.2877,3.2879,3.2837,3.2951,3.2898,3.2908,3.2946,3.2962,3.2974,3.2971,3.2775,0,0,0,0,0,3.2754,3.2792,3.2792,3.2858,3.2867,3.2856,3.2875,3.2858,3.2872,3.2877,3.2877,3.2891,3.2922,3.2942,3.2971,3.3049,3.3048,3.3085,3.3098,3.3108,3.3116,3.3155,3.3171,3.3002,3.3002,3.3002,0,0,3.2803,3.2809,3.2835,3.2872,3.2881,3.2919,3.2861,3.2904,3.2932,3.2883,3.2939,3.294,3.2953,3.3021,3.3051,3.3025,3.3163,3.3118,3.3126,3.3128,3.3164,3.318,3.3195,3.3007,3.3006,3.3005,0,0,3.2911,3.2921,3.2976,3.2987,3.3002,3.2995,3.3008,3.3015,3.3014,3.3071,3.3034,3.3067,3.3121,3.3131,3.3143,3.3257,3.3226,3.3267,3.3331,3.337,3.3383,3.3395,3.3433,3.3447,3.3275,3.3275,3.3275,0,3.2969,3.3026,3.3007,3.3053,3.3069,3.3029,3.3083,3.3095,3.3118,3.313,3.3101,3.3168,3.3174,3.3243,3.3271,3.3283,3.3296,3.3264,3.3383,3.3395,3.3405,3.3441,3.3456,3.328,3.3279,3.3279,3.3278,0,3.3096,3.3136,3.3179,3.3204,3.3225,3.3275,3.3262,3.3286,3.3268,3.3263,3.332,3.3326,3.3354,3.337,3.3353,3.3437,3.342,3.3388,3.3334,3.3426,3.3459,3.3473,3.3286,3.3285,3.3283,3.3282,0,0,3.3244,3.3259,3.3275,3.3285,3.33,3.333,3.3378,3.3407,3.3427,3.3445,3.3483,3.353,3.35,3.3514,3.3498,3.3533,3.3619,3.3496,3.3496,3.3516,3.371,3.3732,3.3748,3.3601,3.3603,3.3605,3.3708,0,3.3349,3.3432,3.3417,3.3497,3.3533,3.3496,3.3537,3.355,3.3547,3.3576,3.3572,3.3605,3.3565,3.3573,3.3606,3.3602,3.3657,3.3595,3.3633,3.3635,3.3628,3.3766,3.379,3.3886,3.3721,3.3723,3.3725,0,3.3482,3.3506,3.3591,3.3599,3.3614,3.3651,3.3676,3.3705,3.3719,3.3714,3.373,3.3708,3.3753,3.3702,3.3764,3.3722,3.3737,3.3738,3.3741,3.3741,3.3683,3.3767,3.3917,3.393,3.3745,3.3744,3.3742,0,3.3579,3.3633,3.369,3.37,3.3712,3.3739,3.3745,3.3756,3.3774,3.3796,3.3807,3.3833,3.3847,3.3868,3.3852,3.3817,3.3916,3.3864,3.3911,3.3911,3.3931,3.3929,3.4082,3.3946,3.3946,3.3945,3.3945,0,3.3696,3.3748,3.3733,3.3768,3.3825,3.3806,3.3863,3.3865,3.3875,3.3908,3.3878,3.391,3.3889,3.3918,3.3907,3.3958,3.3966,3.3961,3.3957,3.3963,3.3963,3.397,3.3962,3.3949,3.3948,3.3948,3.3947,0,3.3812,3.3805,3.3864,3.3871,3.3874,3.3916,3.3921,3.3953,3.3948,3.3991,3.3999,3.3992,3.4025,3.4013,3.4048,3.404,3.4105,3.4094,3.4101,3.4097,3.4144,3.4139,3.4304,3.4324,3.4178,3.4179,3.418,0,3.3886,3.3926,3.3938,3.3958,3.3967,3.4001,3.402,3.4003,3.4023,3.4042,3.4071,3.4102,3.4125,3.418,3.4177,3.4203,3.419,3.4247,3.4194,3.4198,3.4188,3.4185,3.4188,3.4256,3.4258,3.4259,3.426,0,3.4017,3.4012,3.4041,3.4068,3.4092,3.4113,3.413,3.4149,3.4133,3.4157,3.4192,3.421,3.4247,3.4277,3.4301,3.4306,3.428,3.4278,3.4289,3.4294,3.4295,3.4293,3.4126,3.4273,3.4272,3.4271,3.427,3.427,3.4113,3.4146,3.4159,3.4192,3.4204,3.4222,3.4251,3.4251,3.428,3.4309,3.4297,3.4336,3.4348,3.4378,3.4386,3.4416,3.4393,3.4411,3.4415,3.4419,3.4424,3.4293,3.442,3.442,3.4419,3.4419,3.4419,0,3.424,3.4247,3.4278,3.4304,3.433,3.4306,3.4325,3.4347,3.4382,3.4396,3.442,3.4459,3.4489,3.4489,3.4516,3.4539,3.4528,3.4547,3.4543,3.4544,3.4444,3.443,3.4555,3.4555,3.4555,3.4555,3.4555,3.4555,3.4309,3.4363,3.4359,3.4418,3.4425,3.4463,3.4476,3.4491,3.4502,3.4547,3.4572,3.4573,3.458,3.4608,3.4634,3.4633,3.4643,3.4666,3.466,3.4565,3.4552,3.4539,3.4525,3.4669,3.4669,3.4758,3.4759,3.4759]}]]